Location: Glendale
(37.4556°N, 88.6714°W)
Time: 13:20:36
(UTC+00:00)

PAYLOAD B - Pass Details

Date: 08 December 2019
Orbit: 850 x 871 km, 99.1° (Epoch: 27 January)

Event Time Altitude Azimuth Distance (km) Brightness Sun altitude
Rises 11:10:10 0° 15° (NNE) 3,426 7.4 -20.5°
Reaches altitude 10° 11:12:33 10° 17° (NNE) 2,488 6.7 -20.0°
Maximum altitude 11:18:04 77° 103° (ESE) 880 4.4 -19.0°
Drops below altitude 10° 11:23:36 10° 190° (S) 2,485 6.7 -17.9°
Sets 11:25:58 0° 191° (SSW) 3,421 7.4 -17.5°
